Tracking 31027 objects as of 19-Jul-2025
HD Live streaming from Space Station
objects crossing your sky now

SL-8 DEB

Track SL-8 DEB now!
10-day predictions


NORAD ID: 29282
Int'l Code: 1981-120L
Perigee: 1,653.9 km
Apogee: 1,686.7 km
Inclination: 83.0 °
Period: 119.6 minutes
Semi major axis: 8041 km
RCS: 0.0115 m2 (small)
Launch date: December 17, 1981
Source: Commonwealth of Independent States (former USSR) (CIS)
Launch site: PLESETSK MISSILE AND SPACE COMPLEX (PKMTR)

Note: This is SATELLITE DEBRIS
Your satellite tracking list
FLOCK 3P 17
Track 1 satellite(s)




NASA's NSSDC Master Catalog

Two Line Element Set (TLE):
1 29282U 81120L   25199.52863883  .00000021  00000-0  13375-3 0  9999
2 29282  82.9594 291.5993 0020368  46.5631 333.5821 12.03960034568950
Source of the keplerian elements: AFSPC